Regional Weather Roundup
Issued by NWS Newport/Morehead, NC

Home | Current Version | Previous Version | Text Only | Print | Product List | Glossary On
Versions: 1 2 3 4 5 6 7 8 9 10 11 12 13 14 15 16 17 18 19 20 21 22 23 24 25 26 27 28 29 30 31 32 33 34 35 36 37 38 39 40 41 42 43 44 45 46 47 48 49 50
000
ASUS42 KMHX 140725
RWRMHX
WEATHER ROUNDUP FOR EASTERN NORTH CAROLINA
NATIONAL WEATHER SERVICE NEWPORT/MOREHEAD CITY NC
200 AM EST SUN FEB 14 2016

NOTE: "FAIR" INDICATES FEW OR NO CLOUDS BELOW 12,000 FEET
WITH NO SIGNIFICANT WEATHER AND/OR OBSTRUCTIONS TO VISIBILITY

NCZ015>017-031-032-045>047-102-103-140800-
NORTH COAST

CITY           SKY/WX    TMP DP  RH WIND       PRES   REMARKS
EDENTON        CLEAR     21   2  43 N7        30.46R
ELIZABETH CITY PTCLDY    19   2  47 NW12G21   30.45S WCI   7
KITTY HAWK     SUNNY     21   2  44 NW6       30.42R
MANTEO         CLEAR     22   6  50 N16G23    30.43S WCI   8

$$

NCZ045>047-081-094-103-104-140800-
CENTRAL COAST

CITY           SKY/WX    TMP DP  RH WIND       PRES   REMARKS
FRISCO         CLEAR     27  10  49 N9G20     30.40R
SWANQUARTER      N/A     21 N/A N/A VRB2G14   30.41R

$$

NCZ095-097-098-100-101-140800-
SOUTHERN COAST

CITY           SKY/WX    TMP DP  RH WIND       PRES   REMARKS
BEAUFORT       CLEAR     25   4  40 N13       30.41S WCI  14
CEDAR ISLAND     N/A     27 N/A N/A VRB21G29  30.44S WCI  13
JACKSONVILLE   CLEAR     24   3  40 N9        30.42S
PINEY ISLAND   SUNNY    N/A N/A N/A N14       30.41S
WILMINGTON     CLEAR     23   8  52 N7        30.43R


$$

NCZ011>013-027>030-043-044-078>080-089-090>093-098-140800-
COASTAL PLAIN

CITY           SKY/WX    TMP DP  RH WIND       PRES   REMARKS
AHOSKIE        PTCLDY    17  -1  46 N7        30.47S
CLINTON        CLEAR     24   3  40 N8        30.44R
ELIZABETHTOWN  PTCLDY    24   6  45 N3        30.43S
GOLDSBORO      CLEAR     23  -2  33 N8        30.43S
GREENVILLE     PTCLDY    23   3  42 N7        30.44S
HAVELOCK       CLEAR     25   3  38 N18G25    30.43R WCI  11
KENANSVILLE    CLEAR     23   1  38 N9        30.44S
KINSTON        CLEAR     23   2  39 N9        30.44F
NEW BERN       CLEAR     24   2  38 N12       30.43F WCI  13
RICHLANDS      CLEAR     23   0  36 N8        30.43R
ROCKY MOUNT    PTCLDY    20   0  41 N10       30.46R WCI   9
WASHINGTON     CLEAR     20   4  49 N6        30.44S
WHITEVILLE     CLEAR     27   4  38 N5        30.42S

$$

AMZ130-135-150-152-154-156-158-170-250-252-270-ANZ085-086-088-633-658-670-140800-
MARINE OBSERVATIONS

STATION/POSITION TIME  TEMP    WIND        PRES    WAVE   SWELL
                       AIR SEA DIR/SP/G            HT/PER HT/PER
                 (UTC) (F)     (DEG/KT/KT) (MB)    (FT/S) (FT/S)
CHESAPEAKE LIGHT 0700   19     340/ 24/ 29 1031.0
64 E VA BEACH    0650   25 49  340/ 21/ 31 1028.9    9/ 8   2/13
DUCK             0700   22     330/ 20/ 23 1029.7
2 E DUCK         0611      42                N/A     5/ 7
OREGON INLET     0700   22 38  320/ 12/ 16 1030.0
13E OREGON INLT  0700      44                N/A     8/ 7
HATTERAS CG      0700   27 41  350/ 23/ 27 1028.8
DIAMOND BUOY     0650   31 72  360/ 21/ 25 1028.3    5/ 8
CAPE LOOKOUT     NOT AVBL
BEAUFORT LAB     0700   27 43   10/ 14/ 20 1028.7
30 SE NEW RVR IN 0708   33 60              1028.1
30 SE NEW RVR IN 0655      60                N/A     6/ 5
27 SE WRIGHTSVLE 0708   35 59  360/ 19/ 29 1027.6
5 SE WRIGHTSVLE  0608   32 50   30/ 19/ 27 1029.7
225 S CAPE HAT   0650   47 68  340/ 19/ 27   N/A     9/ 8
41 SE CHARLESTON 0650   46 66   40/ 16/ 21 1027.0    4/ 5   2/ 8

$$



USA.gov is the U.S. government's official web portal to all federal, state and local government web resources and services.